Location: Unspecified
(54.1780°N, 0.0000°E)
Time: 02:23:06
(UTC+00:00)

Transit 2A - Pass Details

Date: 24 June 2019
Orbit: 594 x 965 km, 66.7° (Epoch: 17 July)

Event Time Altitude Azimuth Distance (km) Brightness Sun altitude
Rises 22:44:12 0° 174° (S) 3,632 - -10.6°
Reaches altitude 10° 22:47:11 10° 162° (SSE) 2,697 - -10.7°
Exits shadow 22:48:07 14° 156° (SSE) 2,439 7.9 -10.8°
Maximum altitude 22:52:12 25° 110° (ESE) 1,818 7.6 -11.0°
Drops below altitude 10° 22:57:09 10° 58° (ENE) 2,651 9.0 -11.2°
Sets 23:00:02 0° 46° (NE) 3,558 9.9 -11.3°
